Stündliche Wetter Warszowice

Heute, 23 Oktober, Freitag

Zeit Temperatur Niederschläge Wind Luftdruck Luftfeuchtigkeit
00:00 +11°C° 0 mm 3 m/S 740 mmHg 80%
01:00 +10°C° 0 mm 3 m/S 739 mmHg 81%
02:00 +10°C° 0 mm 3 m/S 739 mmHg 81%
03:00 +10°C° 0 mm 3 m/S 739 mmHg 80%
04:00 +9°C° 0 mm 3 m/S 739 mmHg 80%
05:00 +10°C° 0 mm 3 m/S 738 mmHg 80%
06:00 +10°C° 0 mm 3 m/S 738 mmHg 79%
07:00 +10°C° 0 mm 3 m/S 738 mmHg 79%
08:00 +11°C° 0 mm 3 m/S 738 mmHg 75%
09:00 +12°C° 0 mm 3 m/S 738 mmHg 71%
10:00 +13°C° 0 mm 3 m/S 738 mmHg 67%
11:00 +14°C° 0 mm 3 m/S 738 mmHg 66%
12:00 +16°C° 0 mm 3 m/S 737 mmHg 64%
13:00 +17°C° 0 mm 4 m/S 737 mmHg 63%
14:00 +12°C° 0 mm 3 m/S 737 mmHg 85%
15:00 +13°C° 0 mm 3 m/S 736 mmHg 81%
16:00 +14°C° 0 mm 3 m/S 736 mmHg 76%
17:00 +13°C° 0 mm 3 m/S 736 mmHg 79%
18:00 +12°C° 0 mm 3 m/S 736 mmHg 82%
19:00 +11°C° 0 mm 3 m/S 736 mmHg 85%
20:00 +12°C° 0 mm 2 m/S 736 mmHg 85%
21:00 +12°C° 0 mm 2 m/S 736 mmHg 85%
22:00 +12°C° 0 mm 2 m/S 736 mmHg 86%
23:00 +12°C° 0 mm 2 m/S 736 mmHg 85%

Morgen, 24 Oktober, Samstag

Zeit Temperatur Niederschläge Wind Luftdruck Luftfeuchtigkeit
00:00 +11°C° 0 mm 3 m/S 736 mmHg 85%
01:00 +11°C° 0 mm 3 m/S 736 mmHg 85%
02:00 +11°C° 0.1 mm 3 m/S 736 mmHg 85%
03:00 +11°C° 0.1 mm 3 m/S 736 mmHg 86%
04:00 +11°C° 0.1 mm 3 m/S 736 mmHg 86%
05:00 +12°C° 0.9 mm 2 m/S 736 mmHg 88%
06:00 +12°C° 0.9 mm 2 m/S 736 mmHg 91%
07:00 +12°C° 0.9 mm 2 m/S 737 mmHg 94%
08:00 +12°C° 0.3 mm 2 m/S 737 mmHg 91%
09:00 +13°C° 0.3 mm 2 m/S 737 mmHg 89%
10:00 +14°C° 0.3 mm 2 m/S 738 mmHg 87%
11:00 +14°C° 0 mm 2 m/S 738 mmHg 83%
12:00 +15°C° 0 mm 2 m/S 738 mmHg 78%
13:00 +16°C° 0 mm 2 m/S 738 mmHg 74%
14:00 +16°C° 0.1 mm 1 m/S 738 mmHg 76%
15:00 +15°C° 0.1 mm 1 m/S 738 mmHg 79%
16:00 +15°C° 0.1 mm 1 m/S 739 mmHg 81%
17:00 +14°C° 0 mm 1 m/S 739 mmHg 84%
18:00 +13°C° 0 mm 1 m/S 739 mmHg 86%
19:00 +13°C° 0 mm 1 m/S 740 mmHg 88%
20:00 +12°C° 0 mm 1 m/S 740 mmHg 88%
21:00 +12°C° 0 mm 1 m/S 740 mmHg 89%
22:00 +12°C° 0 mm 1 m/S 740 mmHg 89%
23:00 +11°C° 0 mm 1 m/S 740 mmHg 89%

übermorgen, 25 Oktober, Sonntag

Zeit Temperatur Niederschläge Wind Luftdruck Luftfeuchtigkeit
00:00 +11°C° 0 mm 1 m/S 740 mmHg 89%
01:00 +11°C° 0 mm 1 m/S 740 mmHg 90%
02:00 +10°C° 0 mm 1 m/S 740 mmHg 90%
03:00 +10°C° 0 mm 1 m/S 740 mmHg 90%
04:00 +10°C° 0 mm 1 m/S 740 mmHg 90%
05:00 +10°C° 0 mm 1 m/S 740 mmHg 90%
06:00 +10°C° 0 mm 1 m/S 740 mmHg 89%
07:00 +10°C° 0 mm 1 m/S 740 mmHg 89%
08:00 +11°C° 0 mm 1 m/S 740 mmHg 83%
09:00 +13°C° 0 mm 1 m/S 740 mmHg 76%
10:00 +14°C° 0 mm 1 m/S 740 mmHg 70%
11:00 +15°C° 0 mm 1 m/S 739 mmHg 66%
12:00 +16°C° 0 mm 1 m/S 739 mmHg 62%
13:00 +18°C° 0 mm 1 m/S 739 mmHg 58%
14:00 +18°C° 0 mm 1 m/S 738 mmHg 62%
15:00 +16°C° 0 mm 1 m/S 738 mmHg 66%
16:00 +15°C° 0 mm 1 m/S 737 mmHg 70%
17:00 +14°C° 0 mm 1 m/S 737 mmHg 74%
18:00 +13°C° 0 mm 2 m/S 737 mmHg 78%
19:00 +12°C° 0 mm 2 m/S 737 mmHg 82%
20:00 +12°C° 0 mm 2 m/S 737 mmHg 83%
21:00 +12°C° 0 mm 2 m/S 737 mmHg 84%
22:00 +11°C° 0 mm 1 m/S 737 mmHg 85%
23:00 +11°C° 0 mm 1 m/S 736 mmHg 85%

, 26 Oktober, Montag

Zeit Temperatur Niederschläge Wind Luftdruck Luftfeuchtigkeit
00:00 +11°C° 0 mm 1 m/S 736 mmHg 86%
01:00 +10°C° 0 mm 1 m/S 735 mmHg 86%
02:00 +10°C° 0 mm 1 m/S 735 mmHg 86%
03:00 +10°C° 0 mm 1 m/S 735 mmHg 86%
04:00 +10°C° 0 mm 1 m/S 734 mmHg 85%
05:00 +10°C° 0 mm 1 m/S 734 mmHg 84%
06:00 +10°C° 0 mm 1 m/S 734 mmHg 83%
07:00 +10°C° 0 mm 1 m/S 733 mmHg 82%
08:00 +12°C° 0 mm 1 m/S 733 mmHg 77%
09:00 +13°C° 0 mm 2 m/S 733 mmHg 72%
10:00 +15°C° 0 mm 2 m/S 733 mmHg 67%
11:00 +15°C° 0 mm 2 m/S 732 mmHg 66%
12:00 +16°C° 0 mm 2 m/S 732 mmHg 65%
13:00 +17°C° 0 mm 2 m/S 731 mmHg 63%
14:00 +16°C° 0 mm 2 m/S 731 mmHg 65%
15:00 +16°C° 0 mm 2 m/S 731 mmHg 68%
16:00 +15°C° 0 mm 2 m/S 730 mmHg 70%
17:00 +13°C° 0 mm 3 m/S 730 mmHg 72%
18:00 +13°C° 0 mm 3 m/S 730 mmHg 74%
19:00 +12°C° 0 mm 3 m/S 730 mmHg 76%
20:00 +12°C° 0 mm 3 m/S 730 mmHg 77%
21:00 +12°C° 0 mm 3 m/S 730 mmHg 78%
22:00 +12°C° 0 mm 3 m/S 730 mmHg 79%
23:00 +11°C° 0 mm 3 m/S 730 mmHg 80%

26 Oktober, Montag

Zeit Temperatur Niederschläge Wind Luftdruck Luftfeuchtigkeit
00:00 +11°C° 0 mm 1 m/S 736 mmHg 86%
01:00 +10°C° 0 mm 1 m/S 735 mmHg 86%
02:00 +10°C° 0 mm 1 m/S 735 mmHg 86%
03:00 +10°C° 0 mm 1 m/S 735 mmHg 86%
04:00 +10°C° 0 mm 1 m/S 734 mmHg 85%
05:00 +10°C° 0 mm 1 m/S 734 mmHg 84%
06:00 +10°C° 0 mm 1 m/S 734 mmHg 83%
07:00 +10°C° 0 mm 1 m/S 733 mmHg 82%
08:00 +12°C° 0 mm 1 m/S 733 mmHg 77%
09:00 +13°C° 0 mm 2 m/S 733 mmHg 72%
10:00 +15°C° 0 mm 2 m/S 733 mmHg 67%
11:00 +15°C° 0 mm 2 m/S 732 mmHg 66%
12:00 +16°C° 0 mm 2 m/S 732 mmHg 65%
13:00 +17°C° 0 mm 2 m/S 731 mmHg 63%
14:00 +16°C° 0 mm 2 m/S 731 mmHg 65%
15:00 +16°C° 0 mm 2 m/S 731 mmHg 68%
16:00 +15°C° 0 mm 2 m/S 730 mmHg 70%
17:00 +13°C° 0 mm 3 m/S 730 mmHg 72%
18:00 +13°C° 0 mm 3 m/S 730 mmHg 74%
19:00 +12°C° 0 mm 3 m/S 730 mmHg 76%
20:00 +12°C° 0 mm 3 m/S 730 mmHg 77%
21:00 +12°C° 0 mm 3 m/S 730 mmHg 78%
22:00 +12°C° 0 mm 3 m/S 730 mmHg 79%
23:00 +11°C° 0 mm 3 m/S 730 mmHg 80%

27 Oktober, Dienstag

Zeit Temperatur Niederschläge Wind Luftdruck Luftfeuchtigkeit
00:00 +11°C° 0 mm 3 m/S 731 mmHg 82%
01:00 +12°C° 0 mm 2 m/S 731 mmHg 83%
02:00 +10°C° 0 mm 2 m/S 731 mmHg 84%
03:00 +10°C° 0 mm 2 m/S 731 mmHg 85%
04:00 +10°C° 0 mm 2 m/S 731 mmHg 86%
05:00 +10°C° 0 mm 2 m/S 732 mmHg 87%
06:00 +10°C° 0 mm 2 m/S 732 mmHg 87%
07:00 +10°C° 0 mm 2 m/S 732 mmHg 87%
08:00 +13°C° 0 mm 2 m/S 733 mmHg 81%
09:00 +14°C° 0 mm 2 m/S 733 mmHg 75%
10:00 +16°C° 0 mm 2 m/S 733 mmHg 70%
11:00 +17°C° 0 mm 2 m/S 733 mmHg 65%
12:00 +18°C° 0 mm 2 m/S 733 mmHg 61%
13:00 +19°C° 0 mm 3 m/S 734 mmHg 57%
14:00 +18°C° 0 mm 2 m/S 734 mmHg 61%
15:00 +17°C° 0 mm 2 m/S 734 mmHg 65%
16:00 +16°C° 0 mm 1 m/S 734 mmHg 69%
17:00 +15°C° 0 mm 1 m/S 734 mmHg 72%
18:00 +14°C° 0 mm 1 m/S 735 mmHg 75%
19:00 +14°C° 0 mm 1 m/S 735 mmHg 78%
20:00 +13°C° 0 mm 1 m/S 735 mmHg 80%
21:00 +13°C° 0 mm 2 m/S 735 mmHg 82%
22:00 +13°C° 0 mm 2 m/S 736 mmHg 84%
23:00 +13°C° 0.1 mm 2 m/S 736 mmHg 85%

28 Oktober, Mittwoch

Zeit Temperatur Niederschläge Wind Luftdruck Luftfeuchtigkeit
00:00 +11°C° 0.1 mm 3 m/S 736 mmHg 85%
01:00 +11°C° 0.1 mm 3 m/S 736 mmHg 86%
02:00 +11°C° 0.2 mm 3 m/S 736 mmHg 86%
03:00 +10°C° 0.2 mm 3 m/S 736 mmHg 86%
04:00 +10°C° 0.2 mm 2 m/S 736 mmHg 86%
05:00 +10°C° 0.1 mm 3 m/S 737 mmHg 85%
06:00 +10°C° 0.1 mm 3 m/S 737 mmHg 83%
07:00 +10°C° 0.1 mm 3 m/S 737 mmHg 82%
08:00 +10°C° 0 mm 3 m/S 737 mmHg 79%
09:00 +10°C° 0 mm 3 m/S 738 mmHg 76%
10:00 +11°C° 0 mm 3 m/S 738 mmHg 73%
11:00 +11°C° 0 mm 3 m/S 738 mmHg 71%
12:00 +13°C° 0 mm 2 m/S 738 mmHg 69%
13:00 +13°C° 0 mm 2 m/S 738 mmHg 68%
14:00 +13°C° 0 mm 2 m/S 738 mmHg 70%
15:00 +13°C° 0 mm 1 m/S 738 mmHg 72%
16:00 +12°C° 0 mm 1 m/S 739 mmHg 74%
17:00 +11°C° 0 mm 1 m/S 739 mmHg 78%
18:00 +11°C° 0 mm 1 m/S 739 mmHg 81%
19:00 +10°C° 0 mm 1 m/S 740 mmHg 84%
20:00 +10°C° 0 mm 1 m/S 740 mmHg 85%
21:00 +9°C° 0 mm 1 m/S 740 mmHg 87%
22:00 +9°C° 0 mm 1 m/S 740 mmHg 88%
23:00 +9°C° 0 mm 1 m/S 740 mmHg 88%
Mehr zeigen

Wir brauchen deine Erlaubnis

Meteoprog und unser Service Anbieter werden persönliche Daten aufbewahren, so wie Cookies, Geräte Bezeichnung oder ähnliche Technologien von deinem Gerät und Prozess, so wie Persönliche Daten Inhalte und Werbungen, genauso wie social Media und den Verkehr zu analysieren.

  • Aufbewahrung und/oder Zugang zu deiner Geräte Informationen.

    Cookies, Geräte Bezeichnung oder andere Informationen, können aufbewahrt oder Zugang zu deinem Gerät erhalten, für den Grund, der oben angegeben wird.

  • Personalisierte Werbung und Inhalte, Messungen, Einblick in das Publikum und Produkt Entwicklung.

    Werbungen und Inhalte können personalisiert werden, basierend auf ein Profil. Mehr Daten können besser personalisierte Werbungen und Inhalte hinzufügen. Werbung und Inhalte können gezeigt und gemessen werden. Einblicke über das Publikum, welche die Werbung gesehen haben und den Inhalt, können abgeleitet werden. So wie Daten können genutzt werden, um es zu verbessern oder die Benutzer Erfahrung zu verbessern das System und die Software.

Wenn du “Ich stimme zu” klickst, erlaubst du uns, die Cookies zu benutzen die Geräte Bezeichnung, den Web oder ähnliche Technologien zu benutzen. Deine Settings, können in deinem Gerät bei deinem Browser geändert werden.

Für den bestimmten Zweck, berechtigten Interessen beruhen darauf, mehr als auf den Inhalt. Du kannst mehr darüber in unseren Privaten und Cookie Politik lesen.